Location: Hilton Head Island
(32.2163°N, 80.7526°W)
Time: 03:01:13
(UTC-04:00)

Vanguard 2 Rocket - Pass Details

Date: 20 February 2026
Orbit: 553 x 3286 km, 32.9° (Epoch: 9 March)

Event Time Altitude Azimuth Distance (km) Brightness Sun altitude
Rises 08:07:04 0° 193° (SSW) 6,381 11.3 12.7°
Reaches altitude 10° 08:12:33 10° 180° (S) 5,726 11.3 13.7°
Maximum altitude 08:25:23 23° 135° (SE) 5,135 12.3 16.2°
Drops below altitude 10° 08:38:50 10° 92° (E) 6,101 12.5 18.8°
Sets 08:44:47 0° 80° (E) 6,892 12.2 19.9°
